View from above orbital plane
|
View from above satellite
|
Ground track
|
The orbit data is extracted from the following two-line orbital elements,
1 9023U 76069B 21058.15995423 .00000071 00000-0 31286-4 0 9998
2 9023 74.0426 123.1738 0018561 312.0001 47.9572 14.39674875339230
Epoch (UTC): | 27 February 2021 03:50:20 |
Eccentricity: | 0.0018561 |
inclination: | 74.0426° |
perigee height: | 746 km |
apogee height: | 773 km |
right ascension of ascending node: | 123.1738° |
argument of perigee: | 312.0001° |
revolutions per day: | 14.39674875 |
mean anomaly at epoch: | 47.9572° |
orbit number at epoch: | 33923 |
The dashed part of the orbit path shows where the satellite is in the earth's shadow,
|
|